Regional Weather Roundup
Issued by NWS

Home | Current Version | Previous Version | Text Only | Print | Product List | Glossary On
Versions: 1 2 3 4 5 6 7 8 9 10 11 12 13 14 15 16 17 18 19 20 21 22 23 24 25 26 27 28 29 30 31 32 33 34 35 36 37 38 39 40 41 42 43 44 45 46 47 48 49 50
000
ASUS43 KLOT 242006
RWRIL

ILLINOIS REGIONAL WEATHER ROUNDUP
NATIONAL WEATHER SERVICE CHICAGO/ROMEOVILLE IL
300 PM CDT THU APR 24 2014

NOTE: "FAIR" INDICATES FEW OR NO CLOUDS BELOW 12,000 FEET WITH NO
SIGNIFICANT WEATHER AND/OR OBSTRUCTIONS TO VISIBILITY.

* THESE STATIONS ARE NOT UNDER NWS QUALITY CONTROL. THEY ALSO MAY NOT
  REPORT WEATHER SUCH AS PRECIPITATION OR FOG.

ILZ001-002-007-009-015-016-024-242100-
NORTHWEST ILLINOIS

CITY           SKY/WX    TMP DP  RH WIND       PRES   REMARKS
MOLINE         CLOUDY    59  49  69 SE15      29.68F
STERLING*      CLOUDY    55  48  76 CALM      29.75F
SAVANNA*       LGT RAIN  54  48  78 SE10      29.72F
$$

ILZ003-004-008-010-011-017-018-242100-
NORTH CENTRAL ILLINOIS

CITY           SKY/WX    TMP DP  RH WIND       PRES   REMARKS
ROCKFORD       CLOUDY    60  42  51 SE10      29.79F
FREEPORT*      LGT RAIN  51  47  86 SE14      29.77F
ROCHELLE*      CLOUDY    64  35  33 S20G25    29.77R
DE KALB*       CLOUDY    66  34  30 SE28G41   29.76F
PERU*          CLOUDY    67  37  32 S14G23    29.75R
$$

ILZ005-006-012>014-019>023-242100-
NORTHEAST ILLINOIS

CITY           SKY/WX    TMP DP  RH WIND       PRES   REMARKS
CHICAGO-OHARE  CLOUDY    62  32  32 SE25G33   29.81F
CHICAGO-MIDWAY CLOUDY    62  31  31 SE23      29.83F
AURORA         CLOUDY    67  36  31 SE28G38   29.78F
LANSING*       CLOUDY    61  30  31 SE17G24   29.85F
JOLIET*        CLOUDY    66  33  28 SE15G26   29.80F
WAUKEGAN       CLOUDY    51  33  50 SE13G29   29.82F
DUPAGE AIRPORT CLOUDY    65  33  30 SE22G32   29.78F
KANKAKEE*      PTSUNNY   65  38  36 SE18      29.83F
WHEELING       CLOUDY    62  33  33 SE20G25   29.82F
MORRIS*        CLOUDY    68  28  22 SE24G32   29.77F
NORTHERLY ISL    N/A     54  41  61 SE13        N/A
$$

LMZ740>746-242100-
SOUTHERN LAKE MICHIGAN

STATION/POSITION SKY/WX   TEMP    WIND        PRES    VSBY  WAVE
                          AIR SEA DIR/SP/G                  HT/PER
                          (F)     (DEG/KT/KT) (MB)    (MI)  (FT/S)
WAUKEGAN HARBOR            44     130/ 19/ 20 1011.2F
HARRISON CRIB              52     140/ 19/ 22   N/A
BURNHAM HARBOR             55     140/ 13/ 13   N/A
CALUMET HARBOR             60     130/ 13/ 20 1011.6S
MICHIGAN CITY              59     110/ 17/ 26   N/A
$$

ILZ025>027-034>036-040-047-049-050-058-095>099-242100-
WEST-CENTRAL ILLINOIS

CITY           SKY/WX    TMP DP  RH WIND       PRES   REMARKS
QUINCY         CLOUDY    63  53  70 E9        29.64F
GALESBURG*     RAIN      58  51  77 SE6       29.71F
MACOMB*        LGT RAIN  62  49  61 CALM      29.71F
JACKSONVILLE*  CLOUDY    71  43  35 SE12      29.69F
PITTSFIELD*    CLOUDY    73  41  31 SE12      29.66F
$$

ILZ028>032-037-038-041>044-048-051>054-059>061-242100-
CENTRAL ILLINOIS

CITY           SKY/WX    TMP DP  RH WIND       PRES   REMARKS
PONTIAC        PTSUNNY   73  36  25 SE28      29.75F
BLOOMINGTON    MOSUNNY   72  38  29 SE25G35   29.74F
DECATUR        PTSUNNY   73  40  30 SE23G36   29.74F
PEORIA         CLOUDY    71  41  33 S12G18    29.72F
LACON*         CLOUDY    68  41  36 S14G20    29.73F
LINCOLN*       PTSUNNY   75  38  26 S21G29    29.70F
SPRINGFIELD    CLOUDY    74  41  30 S18       29.72F
TAYLORVILLE    PTSUNNY   72  43  35 S17G25    29.73F
$$

ILZ033-039-045-046-055>057-062-063-242100-
EAST-CENTRAL ILLINOIS

CITY           SKY/WX    TMP DP  RH WIND       PRES   REMARKS
CHAMPAIGN      PTSUNNY   73  37  27 SE18G29   29.79F
RANTOUL*       PTSUNNY   72  32  23 SE18G24   29.80F
MATTOON        PTSUNNY   69  39  33 S17G25    29.79F
PARIS*         PTSUNNY   71  37  28 SE15G24   29.83F
$$

ILZ079-100>102-242100-
SOUTHWEST ILLINOIS

CITY           SKY/WX    TMP DP  RH WIND       PRES   REMARKS
ALTON          PTSUNNY   75  46  35 SE23      29.69F
BELLEVILLE     PTSUNNY   77  46  33 S21G26    29.68F
CAHOKIA*       PTSUNNY   77  47  34 S16G23    29.66F
SPARTA*        PTSUNNY   75  46  35 S15G26    29.73F
$$

ILZ064>066-069>071-074>076-080>082-084>086-088>090-092>094-242100-
SOUTH-CENTRAL ILLINOIS

CITY           SKY/WX    TMP DP  RH WIND       PRES   REMARKS
CARBONDALE     MOSUNNY   75  47  36 S17G26    29.77F
CAIRO*         PTSUNNY   81  46  29 S14       29.78F
MARION         MOSUNNY   79  46  31 S23       29.78F
MT. VERNON     MOSUNNY   79  46  31 S14       29.78F
CENTRALIA*     MOSUNNY   77  42  29 S16G22    29.75F
SALEM*         MOSUNNY   77  45  32 S16G23    29.76F
METROPOLIS*    PTSUNNY   78  37  22 S8        29.80F
$$

ILZ067-068-072-073-078-083-087-091-242100-
SOUTHEAST ILLINOIS

CITY           SKY/WX    TMP DP  RH WIND       PRES   REMARKS
FLORA*         MOSUNNY   75  42  29 S17G24    29.80F
FAIRFIELD*     MOSUNNY   75  46  35 SE9       29.79F
HARRISBURG*    MOSUNNY   78  42  28 S13       29.81F
ROBINSON*      MOSUNNY   73  41  31 S13G22    29.84F
CARMI*         MOSUNNY   77  44  31 SE14G22   29.81F
$$

ABBREVIATIONS USED IN REMARKS
   TC - TEMPERATURE IN CELSIUS
  WCI - WIND CHILL INDEX
   HX - HEAT INDEX
  VSB - VISIBILITY
$$




USA.gov is the U.S. government's official web portal to all federal, state and local government web resources and services.